MTN005 KBZN-KDEN

Flight info

Callsign MTN005
Flight time 1h 20m
Altitude 39000
Route BOBKT5 BOY TOFUU FLATI5
Aircraft CRJ7/M-SDFGIRWY/S

Departure

Time 2026-05-06 13:30
Airport Bozeman Yellowstone International Airport (KBZN)

Arrival

Time 2026-05-06 14:50
Airport Denver International Airport (KDEN)
Time Latitude Longitude Altitude Speed Heading
2026-05-06 12:51 45.77881 -111.16041 4444 ft 0 kts 231°
2026-05-06 13:19 45.77890 -111.16025 4444 ft 4 kts 220°
2026-05-06 13:20 45.77913 -111.16011 4444 ft 4 kts 180°
2026-05-06 13:20 45.77933 -111.16023 4444 ft 1 kts 136°
2026-05-06 13:20 45.77937 -111.16028 4444 ft 0 kts 136°
2026-05-06 13:26 45.77927 -111.16014 4444 ft 6 kts 136°
2026-05-06 13:26 45.77898 -111.15975 4444 ft 6 kts 136°
2026-05-06 13:26 45.77869 -111.15935 4444 ft 6 kts 136°
2026-05-06 13:27 45.77839 -111.15893 4444 ft 6 kts 135°
2026-05-06 13:27 45.77812 -111.15825 4444 ft 12 kts 96°
2026-05-06 13:27 45.77884 -111.15778 4444 ft 18 kts 325°
2026-05-06 13:27 45.77993 -111.15926 4444 ft 25 kts 315°
2026-05-06 13:28 45.78117 -111.16097 4444 ft 24 kts 317°
2026-05-06 13:28 45.78238 -111.16258 4444 ft 23 kts 316°
2026-05-06 13:28 45.78354 -111.16417 4444 ft 23 kts 314°
2026-05-06 13:28 45.78464 -111.16575 4444 ft 22 kts 315°
2026-05-06 13:29 45.78571 -111.16726 4444 ft 21 kts 315°
2026-05-06 13:29 45.78691 -111.16798 4444 ft 19 kts 41°
2026-05-06 13:29 45.78760 -111.16652 4445 ft 17 kts 80°
2026-05-06 13:29 45.78748 -111.16550 4446 ft 15 kts 126°
2026-05-06 13:30 45.78582 -111.16316 4445 ft 65 kts 136°
2026-05-06 13:30 45.78093 -111.15643 4446 ft 127 kts 136°
2026-05-06 13:30 45.77340 -111.14594 4471 ft 170 kts 136°
2026-05-06 13:30 45.76456 -111.13528 5181 ft 160 kts 144°
2026-05-06 13:31 45.75608 -111.12465 5890 ft 162 kts 130°
2026-05-06 13:31 45.74883 -111.11200 6645 ft 168 kts 131°
2026-05-06 13:31 45.74110 -111.09890 7214 ft 176 kts 134°
2026-05-06 13:31 45.73256 -111.08576 7770 ft 185 kts 135°
2026-05-06 13:32 45.72321 -111.07229 8239 ft 202 kts 136°
2026-05-06 13:32 45.71274 -111.05734 8766 ft 222 kts 136°
2026-05-06 13:32 45.70146 -111.04120 9438 ft 236 kts 135°
2026-05-06 13:32 45.68973 -111.02438 10247 ft 242 kts 135°
2026-05-06 13:33 45.67769 -111.00717 11021 ft 247 kts 134°
2026-05-06 13:33 45.66581 -110.98911 11781 ft 251 kts 120°
2026-05-06 13:33 45.66020 -110.96597 12559 ft 247 kts 93°
2026-05-06 13:33 45.65861 -110.94670 13209 ft 247 kts 89°
2026-05-06 13:34 45.65751 -110.92898 13803 ft 248 kts 88°
2026-05-06 13:34 45.65608 -110.90669 14474 ft 250 kts 88°
2026-05-06 13:34 45.65482 -110.88873 15014 ft 252 kts 88°
2026-05-06 13:34 45.65273 -110.86374 15695 ft 255 kts 89°
2026-05-06 13:35 45.65024 -110.83855 16388 ft 257 kts 88°
2026-05-06 13:35 45.64723 -110.81318 17096 ft 265 kts 97°
2026-05-06 13:35 45.63715 -110.78967 17508 ft 299 kts 127°
2026-05-06 13:35 45.61948 -110.77070 17565 ft 335 kts 143°
2026-05-06 13:36 45.59853 -110.75311 17695 ft 363 kts 145°
2026-05-06 13:36 45.57612 -110.73420 17933 ft 384 kts 143°
2026-05-06 13:36 45.55298 -110.71344 18209 ft 402 kts 142°
2026-05-06 13:36 45.52912 -110.69118 18519 ft 417 kts 141°
2026-05-06 13:37 45.50462 -110.66839 18980 ft 424 kts 142°
2026-05-06 13:37 45.47980 -110.64533 19403 ft 428 kts 141°
2026-05-06 13:37 45.45483 -110.62205 19843 ft 431 kts 141°
2026-05-06 13:37 45.42961 -110.59863 20279 ft 434 kts 142°
2026-05-06 13:38 45.40421 -110.57509 20714 ft 438 kts 141°
2026-05-06 13:38 45.37858 -110.55131 21126 ft 441 kts 142°
2026-05-06 13:38 45.35279 -110.52749 21492 ft 444 kts 142°
2026-05-06 13:38 45.32679 -110.50350 21867 ft 447 kts 141°
2026-05-06 13:39 45.30065 -110.47925 22285 ft 450 kts 141°
2026-05-06 13:39 45.27427 -110.45499 22655 ft 453 kts 141°
2026-05-06 13:39 45.24775 -110.43059 23048 ft 456 kts 141°
2026-05-06 13:39 45.22104 -110.40597 23426 ft 459 kts 141°
2026-05-06 13:40 45.19413 -110.38124 23790 ft 462 kts 141°
2026-05-06 13:40 45.16706 -110.35640 24086 ft 465 kts 141°
2026-05-06 13:40 45.13986 -110.33142 24365 ft 468 kts 141°
2026-05-06 13:40 45.11246 -110.30634 24671 ft 470 kts 141°
2026-05-06 13:41 45.08494 -110.28117 24924 ft 473 kts 141°
2026-05-06 13:41 45.05727 -110.25580 25196 ft 475 kts 141°
2026-05-06 13:41 45.02943 -110.23034 25473 ft 478 kts 141°
2026-05-06 13:41 45.00137 -110.20486 25736 ft 480 kts 141°
2026-05-06 13:42 44.97326 -110.17922 26001 ft 483 kts 141°
2026-05-06 13:42 44.94503 -110.15338 26281 ft 483 kts 139°
2026-05-06 13:42 44.91907 -110.12384 26505 ft 477 kts 129°
2026-05-06 13:42 44.89532 -110.09124 26763 ft 476 kts 127°
2026-05-06 13:43 44.87206 -110.05861 26998 ft 480 kts 128°
2026-05-06 13:43 44.84774 -110.02617 27229 ft 483 kts 129°
2026-05-06 13:43 44.82281 -109.99421 27473 ft 486 kts 130°
2026-05-06 13:43 44.79771 -109.96213 27662 ft 488 kts 129°
2026-05-06 13:44 44.77263 -109.92982 27867 ft 490 kts 129°
2026-05-06 13:44 44.74749 -109.89737 28085 ft 491 kts 129°
2026-05-06 13:44 44.72218 -109.86487 28277 ft 494 kts 129°
2026-05-06 13:44 44.69680 -109.83227 28481 ft 495 kts 129°
2026-05-06 13:45 44.67127 -109.79955 28621 ft 498 kts 129°
2026-05-06 13:45 44.61988 -109.73408 29026 ft 499 kts 129°
2026-05-06 13:45 44.59418 -109.70121 29205 ft 501 kts 129°
2026-05-06 13:46 44.56833 -109.66818 29394 ft 504 kts 129°
2026-05-06 13:46 44.54237 -109.63514 29610 ft 505 kts 129°
2026-05-06 13:46 44.51629 -109.60195 29738 ft 508 kts 129°
2026-05-06 13:46 44.49008 -109.56870 29909 ft 509 kts 129°
2026-05-06 13:47 44.46377 -109.53539 30094 ft 510 kts 129°
2026-05-06 13:47 44.43747 -109.50203 30263 ft 512 kts 129°
2026-05-06 13:47 44.41104 -109.46868 30430 ft 513 kts 129°
2026-05-06 13:47 44.38453 -109.43515 30575 ft 514 kts 129°
2026-05-06 13:48 44.35798 -109.40163 30708 ft 515 kts 129°
2026-05-06 13:48 44.33136 -109.36806 30833 ft 516 kts 129°
2026-05-06 13:48 44.30462 -109.33453 30986 ft 517 kts 129°
2026-05-06 13:48 44.27788 -109.30094 31128 ft 518 kts 129°
2026-05-06 13:49 44.25111 -109.26729 31291 ft 519 kts 129°
2026-05-06 13:49 44.22424 -109.23363 31390 ft 520 kts 129°
2026-05-06 13:49 44.17073 -109.16671 31653 ft 517 kts 129°
2026-05-06 13:50 44.14410 -109.13361 31960 ft 514 kts 129°
2026-05-06 13:50 44.11745 -109.10030 32056 ft 515 kts 128°
2026-05-06 13:50 44.09085 -109.06707 32209 ft 515 kts 129°
2026-05-06 13:50 44.06419 -109.03390 32369 ft 514 kts 128°
2026-05-06 13:51 44.03753 -109.00074 32530 ft 514 kts 128°
2026-05-06 13:51 44.01092 -108.96769 32688 ft 514 kts 128°
2026-05-06 13:51 43.98424 -108.93472 32840 ft 513 kts 128°
2026-05-06 13:51 43.95762 -108.90180 33017 ft 512 kts 128°
2026-05-06 13:52 43.93100 -108.86887 33146 ft 513 kts 128°
2026-05-06 13:52 43.90431 -108.83592 33188 ft 515 kts 129°
2026-05-06 13:52 43.85054 -108.76970 33212 ft 520 kts 129°
2026-05-06 13:53 43.79620 -108.70295 33202 ft 524 kts 129°
2026-05-06 13:53 43.74140 -108.63581 33200 ft 528 kts 129°
2026-05-06 13:54 43.68648 -108.56869 33198 ft 526 kts 129°
2026-05-06 13:54 43.63145 -108.50164 33197 ft 528 kts 130°
2026-05-06 13:55 43.57623 -108.43451 33210 ft 530 kts 130°
2026-05-06 13:55 43.52082 -108.36728 33201 ft 531 kts 130°
2026-05-06 13:56 43.45945 -108.30850 33218 ft 550 kts 148°
2026-05-06 13:56 43.38818 -108.26816 33195 ft 557 kts 156°
2026-05-06 13:57 43.31320 -108.23939 33197 ft 561 kts 162°
2026-05-06 13:57 43.23840 -108.21195 33189 ft 559 kts 159°
2026-05-06 13:58 43.16364 -108.18251 33194 ft 559 kts 160°
2026-05-06 13:58 43.08899 -108.15369 33196 ft 551 kts 160°
2026-05-06 13:59 43.01623 -108.12548 33189 ft 537 kts 160°
2026-05-06 13:59 42.94514 -108.09798 33193 ft 525 kts 160°
2026-05-06 14:00 42.87550 -108.07113 33205 ft 516 kts 159°
2026-05-06 14:00 42.80656 -108.04462 33214 ft 515 kts 159°
2026-05-06 14:01 42.73738 -108.01809 33223 ft 517 kts 160°
2026-05-06 14:01 42.66798 -107.99152 33227 ft 519 kts 160°
2026-05-06 14:02 42.59842 -107.96502 33222 ft 520 kts 160°
2026-05-06 14:02 42.52876 -107.93845 33230 ft 521 kts 160°
2026-05-06 14:03 42.45892 -107.91199 33239 ft 522 kts 160°
2026-05-06 14:03 42.38883 -107.88545 33237 ft 523 kts 160°
2026-05-06 14:04 42.31863 -107.85892 33234 ft 524 kts 160°
2026-05-06 14:04 42.24819 -107.83235 33235 ft 527 kts 161°
2026-05-06 14:05 42.17741 -107.80574 33224 ft 529 kts 161°
2026-05-06 14:05 42.10637 -107.77907 33222 ft 531 kts 161°
2026-05-06 14:06 42.03564 -107.75259 33216 ft 531 kts 161°
2026-05-06 14:06 41.96439 -107.72595 33216 ft 532 kts 161°
2026-05-06 14:07 41.89306 -107.69938 33212 ft 532 kts 162°
2026-05-06 14:07 41.82655 -107.65959 33212 ft 519 kts 141°
2026-05-06 14:08 41.77012 -107.60001 33199 ft 514 kts 134°
2026-05-06 14:08 41.72374 -107.53596 33193 ft 507 kts 124°
2026-05-06 14:09 41.67813 -107.46401 33186 ft 508 kts 126°
2026-05-06 14:09 41.63069 -107.39388 33184 ft 508 kts 127°
2026-05-06 14:10 41.58332 -107.32372 33181 ft 509 kts 127°
2026-05-06 14:10 41.53581 -107.25363 33183 ft 509 kts 128°
2026-05-06 14:11 41.48827 -107.18362 33175 ft 509 kts 128°
2026-05-06 14:11 41.44068 -107.11362 33163 ft 509 kts 128°
2026-05-06 14:12 41.39295 -107.04390 33148 ft 509 kts 129°
2026-05-06 14:12 41.34535 -106.97407 33146 ft 509 kts 129°
2026-05-06 14:13 41.29803 -106.90478 33145 ft 509 kts 129°
2026-05-06 14:13 41.25034 -106.83520 33144 ft 509 kts 130°
2026-05-06 14:14 41.20296 -106.76628 33140 ft 502 kts 130°
2026-05-06 14:14 41.15617 -106.69835 33144 ft 495 kts 130°
2026-05-06 14:15 41.10994 -106.63142 33148 ft 489 kts 130°
2026-05-06 14:15 41.06423 -106.56538 33143 ft 483 kts 131°
2026-05-06 14:16 41.01901 -106.50020 33144 ft 478 kts 131°
2026-05-06 14:16 40.97420 -106.43577 33144 ft 473 kts 131°
2026-05-06 14:17 40.92971 -106.37200 33144 ft 469 kts 131°
2026-05-06 14:17 40.88568 -106.30881 33142 ft 466 kts 132°
2026-05-06 14:18 40.85146 -106.25447 33143 ft 461 kts 122°
2026-05-06 14:18 40.83451 -106.21859 32807 ft 464 kts 119°
2026-05-06 14:18 40.81880 -106.18076 32223 ft 476 kts 115°
2026-05-06 14:19 40.80482 -106.14052 31672 ft 488 kts 112°
2026-05-06 14:19 40.79119 -106.09901 31123 ft 492 kts 112°
2026-05-06 14:19 40.77739 -106.05839 30582 ft 479 kts 114°
2026-05-06 14:19 40.76335 -106.01911 30017 ft 468 kts 115°
2026-05-06 14:20 40.74958 -105.98062 29358 ft 460 kts 115°
2026-05-06 14:20 40.73607 -105.94287 28734 ft 451 kts 116°
2026-05-06 14:20 40.72282 -105.90567 28107 ft 444 kts 116°
2026-05-06 14:20 40.70961 -105.86918 27481 ft 438 kts 117°
2026-05-06 14:21 40.69661 -105.83314 26878 ft 433 kts 117°
2026-05-06 14:21 40.68378 -105.79753 26280 ft 425 kts 118°
2026-05-06 14:21 40.67124 -105.76274 25695 ft 419 kts 118°
2026-05-06 14:21 40.65877 -105.72822 25136 ft 416 kts 118°
2026-05-06 14:22 40.64641 -105.69390 24590 ft 414 kts 119°
2026-05-06 14:22 40.63413 -105.65993 24020 ft 409 kts 120°
2026-05-06 14:22 40.62189 -105.62627 23391 ft 407 kts 120°
2026-05-06 14:22 40.60969 -105.59278 22722 ft 405 kts 120°
2026-05-06 14:23 40.59770 -105.55956 22283 ft 398 kts 119°
2026-05-06 14:23 40.58592 -105.52705 21917 ft 390 kts 119°
2026-05-06 14:23 40.57433 -105.49508 21549 ft 384 kts 119°
2026-05-06 14:23 40.56292 -105.46364 21175 ft 378 kts 118°
2026-05-06 14:24 40.55170 -105.43266 20822 ft 373 kts 118°
2026-05-06 14:24 40.54060 -105.40210 20454 ft 368 kts 118°
2026-05-06 14:24 40.52960 -105.37199 20118 ft 363 kts 118°
2026-05-06 14:24 40.51877 -105.34229 19811 ft 357 kts 117°
2026-05-06 14:25 40.50822 -105.31346 19511 ft 352 kts 117°
2026-05-06 14:25 40.49769 -105.28461 19219 ft 348 kts 117°
2026-05-06 14:25 40.48732 -105.25621 18937 ft 343 kts 117°
2026-05-06 14:25 40.47695 -105.22795 18737 ft 336 kts 117°
2026-05-06 14:26 40.46680 -105.20015 18545 ft 339 kts 117°
2026-05-06 14:26 40.45401 -105.17438 18339 ft 337 kts 137°
2026-05-06 14:26 40.43576 -105.15507 18138 ft 337 kts 147°
2026-05-06 14:26 40.41620 -105.13796 17873 ft 340 kts 149°
2026-05-06 14:27 40.39624 -105.12098 17610 ft 343 kts 149°
2026-05-06 14:27 40.37654 -105.10393 17348 ft 345 kts 147°
2026-05-06 14:27 40.35675 -105.08589 17085 ft 347 kts 146°
2026-05-06 14:27 40.33705 -105.06746 16843 ft 349 kts 146°
2026-05-06 14:28 40.31746 -105.04925 16557 ft 340 kts 146°
2026-05-06 14:28 40.29811 -105.03132 16268 ft 333 kts 146°
2026-05-06 14:28 40.27962 -105.01416 15989 ft 325 kts 146°
2026-05-06 14:28 40.26157 -104.99745 15706 ft 311 kts 146°
2026-05-06 14:29 40.24402 -104.98130 15426 ft 307 kts 146°
2026-05-06 14:29 40.22667 -104.96525 15143 ft 304 kts 146°
2026-05-06 14:29 40.20949 -104.94932 14865 ft 302 kts 146°
2026-05-06 14:29 40.19235 -104.93353 14590 ft 300 kts 146°
2026-05-06 14:30 40.17485 -104.91878 14318 ft 298 kts 153°
2026-05-06 14:30 40.15621 -104.90731 14051 ft 295 kts 158°
2026-05-06 14:30 40.13728 -104.89727 13784 ft 293 kts 159°
2026-05-06 14:30 40.11846 -104.88750 13560 ft 289 kts 159°
2026-05-06 14:31 40.09989 -104.87784 13339 ft 285 kts 158°
2026-05-06 14:31 40.08175 -104.86776 13134 ft 281 kts 156°
2026-05-06 14:31 40.06376 -104.85753 12952 ft 289 kts 156°
2026-05-06 14:31 40.04511 -104.84714 12771 ft 290 kts 156°
2026-05-06 14:32 40.02668 -104.83666 12582 ft 288 kts 156°
2026-05-06 14:32 40.00850 -104.82627 12404 ft 283 kts 156°
2026-05-06 14:32 39.99056 -104.81585 12208 ft 281 kts 155°
2026-05-06 14:32 39.97284 -104.80620 12028 ft 271 kts 163°
2026-05-06 14:33 39.95449 -104.80303 11870 ft 264 kts 178°
2026-05-06 14:33 39.93618 -104.80364 11712 ft 263 kts 182°
2026-05-06 14:33 39.91801 -104.80517 11551 ft 261 kts 183°
2026-05-06 14:33 39.89989 -104.80642 11399 ft 260 kts 181°
2026-05-06 14:34 39.88187 -104.80703 11236 ft 259 kts 180°
2026-05-06 14:34 39.86386 -104.80732 11090 ft 257 kts 180°
2026-05-06 14:34 39.84623 -104.80775 11018 ft 250 kts 180°
2026-05-06 14:34 39.82903 -104.80821 10983 ft 243 kts 180°
2026-05-06 14:35 39.81242 -104.80864 10967 ft 235 kts 179°
2026-05-06 14:35 39.79638 -104.80907 10924 ft 227 kts 180°
2026-05-06 14:35 39.78038 -104.80956 10939 ft 235 kts 180°
2026-05-06 14:35 39.76371 -104.81006 10949 ft 244 kts 180°
2026-05-06 14:36 39.74650 -104.81058 10961 ft 251 kts 180°
2026-05-06 14:36 39.72956 -104.81109 10972 ft 240 kts 180°
2026-05-06 14:36 39.71317 -104.81161 10968 ft 234 kts 180°
2026-05-06 14:36 39.69695 -104.81215 10967 ft 234 kts 180°
2026-05-06 14:37 39.68034 -104.81268 10968 ft 243 kts 180°
2026-05-06 14:37 39.66311 -104.81319 10975 ft 253 kts 180°
2026-05-06 14:37 39.64524 -104.81367 10975 ft 261 kts 180°
2026-05-06 14:37 39.62684 -104.81415 10984 ft 267 kts 180°
2026-05-06 14:38 39.60878 -104.81461 10975 ft 252 kts 180°
2026-05-06 14:38 39.59167 -104.81505 10960 ft 239 kts 180°
2026-05-06 14:38 39.57538 -104.81550 10954 ft 234 kts 180°
2026-05-06 14:38 39.55889 -104.81592 10957 ft 240 kts 180°
2026-05-06 14:39 39.54201 -104.81628 10959 ft 244 kts 180°
2026-05-06 14:39 39.52496 -104.81662 10962 ft 246 kts 180°
2026-05-06 14:39 39.50784 -104.81688 10965 ft 247 kts 180°
2026-05-06 14:39 39.49066 -104.81711 10966 ft 248 kts 180°
2026-05-06 14:40 39.47338 -104.81656 10959 ft 247 kts 167°
2026-05-06 14:40 39.45880 -104.80618 10968 ft 240 kts 129°
2026-05-06 14:40 39.45134 -104.78724 10981 ft 237 kts 110°
2026-05-06 14:40 39.44774 -104.76668 10982 ft 234 kts 90°
2026-05-06 14:41 39.44721 -104.74562 10975 ft 235 kts 91°
2026-05-06 14:41 39.44679 -104.72455 10972 ft 234 kts 83°
2026-05-06 14:41 39.45336 -104.70590 10940 ft 233 kts 43°
2026-05-06 14:41 39.46790 -104.69598 10548 ft 248 kts 15°
2026-05-06 14:42 39.48457 -104.69043 10247 ft 245 kts 13°
2026-05-06 14:42 39.50123 -104.68854 10110 ft 236 kts
2026-05-06 14:42 39.51728 -104.68929 10057 ft 224 kts 358°
2026-05-06 14:42 39.53254 -104.69029 9890 ft 217 kts 359°
2026-05-06 14:43 39.54720 -104.69085 9713 ft 206 kts
2026-05-06 14:43 39.56125 -104.69099 9503 ft 198 kts
2026-05-06 14:43 39.57474 -104.69081 9291 ft 190 kts
2026-05-06 14:43 39.58780 -104.69059 9072 ft 189 kts
2026-05-06 14:44 39.60151 -104.69045 8861 ft 205 kts
2026-05-06 14:44 39.61622 -104.69025 8669 ft 217 kts
2026-05-06 14:44 39.63137 -104.69011 8477 ft 213 kts
2026-05-06 14:45 39.65951 -104.68978 8091 ft 191 kts
2026-05-06 14:45 39.67244 -104.68971 7995 ft 181 kts
2026-05-06 14:45 39.68437 -104.68958 7989 ft 160 kts
2026-05-06 14:45 39.69527 -104.68943 7970 ft 156 kts
2026-05-06 14:46 39.70619 -104.68930 7962 ft 162 kts
2026-05-06 14:46 39.71779 -104.68914 7964 ft 167 kts
2026-05-06 14:46 39.72997 -104.68899 7730 ft 182 kts
2026-05-06 14:46 39.74135 -104.68888 7445 ft 146 kts
2026-05-06 14:47 39.75053 -104.68878 7114 ft 119 kts
2026-05-06 14:47 39.75893 -104.68868 6792 ft 130 kts
2026-05-06 14:47 39.76856 -104.68856 6650 ft 137 kts
2026-05-06 14:47 39.77777 -104.68858 6607 ft 130 kts
2026-05-06 14:48 39.78652 -104.68848 6563 ft 120 kts
2026-05-06 14:48 39.79439 -104.68837 6483 ft 107 kts
2026-05-06 14:48 39.80234 -104.68816 6185 ft 120 kts
2026-05-06 14:48 39.81010 -104.68792 6388 ft 107 kts
2026-05-06 14:49 39.81780 -104.68774 6347 ft 115 kts
2026-05-06 14:49 39.82568 -104.68761 6440 ft 111 kts
2026-05-06 14:49 39.83411 -104.68751 6303 ft 134 kts
2026-05-06 14:49 39.84399 -104.68711 5874 ft 149 kts
2026-05-06 14:50 39.85330 -104.68574 5537 ft 119 kts 359°
2026-05-06 14:50 39.86167 -104.68518 5417 ft 121 kts 11°
2026-05-06 14:50 39.86756 -104.68121 5364 ft 53 kts 33°
2026-05-06 14:50 39.86828 -104.68052 5364 ft 0 kts 56°
2026-05-06 14:51 39.86830 -104.68048 5363 ft 1 kts 58°
2026-05-06 14:51 39.86835 -104.68036 5363 ft 2 kts 62°
2026-05-06 14:51 39.86841 -104.68018 5364 ft 2 kts 69°
2026-05-06 14:51 39.86846 -104.67996 5363 ft 3 kts 77°
2026-05-06 14:52 39.86849 -104.67969 5364 ft 3 kts 86°
2026-05-06 14:52 39.86848 -104.67940 5364 ft 3 kts 96°
2026-05-06 14:52 39.86843 -104.67909 5364 ft 4 kts 107°
2026-05-06 14:52 39.85759 -104.66624 5364 ft 0 kts